Vertical_Velocity
-1 5 0 2 -1 3 1 3 -2 1 3 -2 -2 -4 3 4 1 0 1 -2 -1 -3 -2 -2 -2 -1 -1
-0 -11 -4 0 7 2 -2 -3 1 1 -1 -1 2 -1 -1 -1 -4 -1 1 -4 -1 -1 -2 -6 -4 -2 -1
3 3 4 -1 5 2 0 1 6 -1 3 1 -0 2 1 -1 -2 -1 -1 3 -1 -1 2 -0 1 -2 -1
15 -3 0 -1 6 2 1 -7 -6 3 0 2 2 -1 -0 -1 -1 1 -1 -1 -1 0 0 0 -1 2 -2
4 -1 1 -6 -13 -6 -1 3 -3 2 1 0 -6 -3 -6 -1 -2 0 3 3 2 -1 -1 0 -5 2 -3
-2 -3 -6 -6 2 -4 5 6 -9 -8 -4 -2 1 -5 -1 -1 -3 -3 -1 0 3 3 -1 1 -2 1 -2
-1 -10 -3 -4 11 3 -2 -6 -9 -3 15 -4 5 -6 -7 -2 0 -1 5 10 -1 -1 -1 1 2 2 1
8 -10 -11 13 -13 -3 -3 6 38 12 3 -3 7 -7 11 4 1 -4 3 2 8 -0 3 2 2 2 2
3 9 -0 4 7 7 6 14 6 -11 6 3 -11 -0 -15 -4 4 10 -2 12 4 4 6 2 1 4 1
5 -6 14 5 21 -5 17 -4 20 7 -10 -5 5 5 7 -7 -4 11 -2 2 2 0 3 -1 -1 -1 -5
2 -5 -3 11 6 7 7 -2 10 -15 2 -2 5 6 2 -4 -5 0 3 6 4 1 2 -1 -0 -4 4
-2 -1 -2 -1 -6 -6 7 -0 12 -6 22 16 -1 -11 0 5 2 -6 1 6 10 2 9 9 8 3 -0
-4 -14 -8 -2 13 5 3 6 4 8 -4 6 -4 10 7 -5 -2 -6 6 -13 -0 4 7 4 1 -1 7
0 2 8 -4 -5 2 7 2 8 1 4 4 17 6 1 8 4 9 4 -16 -2 4 4 10 1 -1 6
-7 4 8 5 -8 1 2 6 -0 2 -2 12 5 5 8 2 4 -1 2 -0 3 8 8 4 7 3 2
5 3 2 4 6 5 6 3 3 6 -2 0 7 11 7 4 6 6 7 3 9 2 12 3 4 6 7
3 3 3 3 10 6 1 3 1 6 -1 -1 6 12 7 -7 2 5 3 4 2 4 6 2 -1 -2 -4
Height
1521 1523 1525 1529 1532 1535 1537 1538 1541 1544 1546 1547 1548 1551 1552 1552 1553 1554 1554 1554 1554 1556 1558 1559 1559 1560 1559
1510 1512 1515 1519 1523 1525 1528 1530 1530 1533 1536 1538 1540 1542 1543 1544 1546 1547 1548 1547 1548 1547 1549 1550 1552 1552 1552
1499 1500 1506 1507 1511 1513 1516 1518 1520 1523 1526 1528 1531 1533 1534 1535 1535 1537 1538 1539 1540 1541 1541 1542 1543 1543 1544
1487 1487 1492 1496 1499 1501 1503 1506 1508 1512 1514 1517 1519 1521 1523 1525 1525 1526 1528 1530 1531 1532 1533 1534 1535 1536 1536
1476 1474 1479 1481 1483 1489 1490 1495 1496 1500 1503 1504 1506 1507 1509 1511 1513 1515 1517 1518 1520 1522 1522 1524 1526 1528 1529
1462 1461 1465 1470 1475 1479 1480 1482 1481 1484 1488 1488 1492 1491 1494 1495 1496 1500 1503 1506 1509 1511 1513 1515 1515 1517 1519
1449 1451 1455 1455 1464 1466 1465 1466 1464 1469 1473 1471 1473 1474 1479 1479 1483 1487 1490 1491 1494 1499 1501 1504 1506 1508 1509
1434 1437 1440 1445 1444 1448 1452 1453 1456 1453 1455 1456 1458 1458 1465 1464 1467 1472 1475 1478 1482 1485 1488 1492 1496 1498 1499
1421 1423 1426 1428 1430 1435 1436 1433 1434 1435 1438 1443 1443 1448 1455 1452 1456 1455 1460 1463 1468 1473 1477 1479 1485 1488 1490
1407 1409 1412 1414 1417 1413 1421 1420 1420 1422 1423 1430 1433 1435 1435 1438 1439 1444 1443 1449 1454 1458 1463 1466 1472 1474 1477
1394 1394 1397 1400 1402 1402 1403 1405 1406 1406 1409 1415 1416 1417 1423 1423 1424 1428 1432 1434 1439 1442 1446 1450 1453 1459 1464
1380 1381 1383 1385 1385 1389 1391 1389 1391 1392 1396 1397 1396 1400 1403 1407 1410 1412 1418 1421 1424 1427 1433 1436 1443 1448 1454
1364 1365 1369 1372 1375 1373 1375 1376 1378 1381 1382 1382 1383 1386 1390 1391 1394 1396 1403 1406 1411 1416 1420 1425 1431 1438 1445
1354 1353 1355 1356 1359 1360 1361 1362 1364 1365 1368 1371 1372 1374 1378 1382 1383 1387 1388 1391 1397 1401 1408 1416 1422 1429 1436
1343 1344 1343 1341 1342 1348 1349 1348 1350 1351 1354 1356 1358 1362 1368 1372 1374 1376 1379 1379 1384 1390 1396 1402 1411 1418 1425
1331 1330 1332 1330 1331 1331 1336 1337 1335 1337 1340 1344 1346 1350 1355 1359 1362 1363 1365 1368 1375 1378 1387 1392 1402 1410 1417
1321 1320 1320 1320 1322 1319 1318 1325 1325 1326 1327 1331 1334 1337 1340 1342 1348 1350 1355 1359 1364 1374 1379 1385 1391 1401 1411